[[{"header":{"parameterUnit":"m.s-1","parameterCategory":1,"la1":30.2992,"la2":30.254,"lo1":-89.0895,"lo2":-89.0443,"dy":0.0025,"dx":0.0025,"nx":19,"ny":19,"refTime":"2026-05-10T09:00:00:Z","depth":0,"parameterNumber":2,"parameterNumberName":"U-component_of_WINDS"},"data":[0,0,0,-1.5699,-1.5699,-1.5718,-1.5718,-1.5753,-1.5753,0,0,0,0,0,0,0,0,0,0,0,-1.57,-1.5701,-1.5699,-1.5699,-1.5718,-1.5718,-1.5753,-1.5753,0,0,0,0,0,0,0,0,0,0,0,-1.57,-1.57,-1.5701,-1.5699,-1.5718,-1.5718,-1.5752,-1.5735,0,0,0,0,0,0,0,0,0,0,-1.5715,-1.5723,-1.57,-1.5701,-1.57,-1.5718,-1.5718,-1.5734,-1.5736,-1.5749,0,-1.5763,0,-1.5759,-1.5756,-1.5756,0,0,0,-1.5694,-1.5721,-1.572,-1.5701,-1.57,-1.5718,-1.5708,-1.5735,-1.5737,-1.5752,-1.5763,-1.5764,-1.5759,-1.5756,-1.5757,-1.5851,-1.5851,0,0,-1.5693,-1.5707,-1.5718,-1.5722,-1.5719,-1.5707,-1.5709,-1.5736,-1.5749,-1.5763,-1.5765,-1.576,-1.5757,-1.5757,-1.585,-1.5851,0,0,0,-1.5694,-1.5707,-1.5704,-1.5721,-1.5723,-1.5708,-1.5709,-1.5748,-1.5746,-1.5765,-1.576,-1.5757,-1.5758,-1.5849,-1.585,-1.5897,0,0,0,-1.5693,-1.5707,-1.5704,-1.5713,-1.5723,-1.5736,-1.5721,-1.5744,-1.5747,-1.576,-1.5757,-1.5758,-1.5849,-1.585,-1.5894,-1.5916,0,0,0,-1.5697,-1.5707,-1.5712,-1.5714,-1.5722,-1.5735,-1.5734,-1.5744,-1.5744,-1.5756,-1.5758,-1.5848,-1.585,-1.5891,-1.5912,-1.5945,0,0,0,-1.5704,-1.5753,-1.5713,-1.5766,-1.5722,-1.5764,-1.5734,-1.5764,-1.578,-1.5757,-1.5849,-1.585,-1.5891,-1.5909,-1.5942,-1.5975,-1.599,0,0,-1.5774,-1.5762,-1.5792,-1.5757,-1.5809,-1.576,-1.5819,-1.582,-1.5809,-1.5838,-1.584,-1.5895,-1.5912,-1.5944,-1.6069,-1.6081,0,0,0,-1.5819,-1.584,-1.5851,-1.5867,-1.587,-1.5874,-1.5865,-1.5866,-1.5889,-1.5827,-1.5915,-1.5925,-1.5944,-1.5958,-1.5969,-1.5983,-1.5858,-1.5858,-1.5858,-1.5936,-1.5919,-1.5968,-1.5953,-1.5969,-1.596,-1.5971,-1.597,-1.5948,-1.597,-1.5978,-1.6056,-1.6074,-1.6081,-1.6097,-1.5994,-1.5994,-1.5994,-1.5994,-1.6036,-1.6064,-1.6034,-1.607,-1.6052,-1.6082,-1.6075,-1.6058,-1.6084,-1.6048,-1.6064,-1.6026,-1.6095,-1.6108,-1.5998,-1.5997,-1.5997,-1.5996,-1.5996,-1.6111,-1.6121,-1.6121,-1.6142,-1.6161,-1.6144,-1.617,-1.6153,-1.6137,-1.6152,-1.6158,-1.6158,-1.6154,-1.6156,-1.6157,-1.6157,-1.6157,-1.6157,-1.6157,-1.6188,-1.6187,-1.621,-1.6217,-1.6225,-1.6234,-1.6225,-1.6233,-1.6236,-1.6222,-1.6221,-1.6198,-1.6105,-1.6082,-1.6162,-1.6161,-1.616,-1.616,-1.616,-1.6295,-1.6268,-1.6304,-1.6313,-1.6319,-1.6339,-1.6316,-1.6333,-1.6337,-1.635,-1.6323,-1.6257,-1.6244,-1.6236,-1.6217,-1.6326,-1.6326,-1.6326,-1.6326,-1.6357,-1.6349,-1.6382,-1.6396,-1.6408,-1.6392,-1.6434,-1.6428,-1.6417,-1.6419,-1.64,-1.6373,-1.6366,-1.6357,-1.6346,-1.6328,-1.6464,-1.6464,-1.6464,-1.6422,-1.6414,-1.6453,-1.6442,-1.6446,-1.645,-1.6489,-1.6507,-1.6489,-1.6469,-1.6419,-1.6413,-1.637,-1.6356,-1.6335,-1.6318,-1.6284,0,0]},{"header":{"parameterUnit":"m.s-1","parameterCategory":1,"la1":30.2992,"la2":30.254,"lo1":-89.0895,"lo2":-89.0443,"dy":0.0025,"dx":0.0025,"nx":19,"ny":19,"refTime":"2026-05-10T09:00:00:Z","depth":0,"parameterNumber":3,"parameterNumberName":"V-component_of_WINDS"},"data":[0,0,0,-0.4886,-0.4885,-0.4856,-0.4856,-0.4819,-0.4819,0,0,0,0,0,0,0,0,0,0,0,-0.4896,-0.4896,-0.4886,-0.4885,-0.4856,-0.4856,-0.482,-0.4819,0,0,0,0,0,0,0,0,0,0,0,-0.4896,-0.4896,-0.4896,-0.4885,-0.4856,-0.4856,-0.482,-0.4841,0,0,0,0,0,0,0,0,0,0,-0.4869,-0.4881,-0.4896,-0.4896,-0.4885,-0.4856,-0.4856,-0.4842,-0.484,-0.4834,0,-0.483,0,-0.4824,-0.4817,-0.4817,0,0,0,-0.4883,-0.4883,-0.4873,-0.4896,-0.4885,-0.4856,-0.4868,-0.4841,-0.4838,-0.4831,-0.4829,-0.4828,-0.4823,-0.4817,-0.4817,-0.4789,-0.4789,0,0,-0.4885,-0.4892,-0.4875,-0.4872,-0.4877,-0.4869,-0.4868,-0.4839,-0.4837,-0.4829,-0.4827,-0.4823,-0.4817,-0.4816,-0.4789,-0.4789,0,0,0,-0.4891,-0.4893,-0.4884,-0.4873,-0.4868,-0.4869,-0.4867,-0.4839,-0.4835,-0.4826,-0.4822,-0.4816,-0.4816,-0.4789,-0.4789,-0.4793,0,0,0,-0.4892,-0.4896,-0.4885,-0.4889,-0.4869,-0.4853,-0.4867,-0.4837,-0.4834,-0.4823,-0.4816,-0.4816,-0.4789,-0.4789,-0.4793,-0.4794,0,0,0,-0.4897,-0.4897,-0.4893,-0.4889,-0.4877,-0.4854,-0.4848,-0.4836,-0.4832,-0.4817,-0.4815,-0.4789,-0.4789,-0.4793,-0.4794,-0.4788,0,0,0,-0.4905,-0.4897,-0.4893,-0.4882,-0.4877,-0.4857,-0.4849,-0.4833,-0.4821,-0.4816,-0.4789,-0.4789,-0.4793,-0.4794,-0.4788,-0.4784,-0.4784,0,0,-0.4898,-0.4896,-0.4889,-0.4885,-0.4867,-0.486,-0.4842,-0.4825,-0.4817,-0.4799,-0.4798,-0.4793,-0.4794,-0.4788,-0.4778,-0.4777,0,0,0,-0.4889,-0.4884,-0.4878,-0.4867,-0.4854,-0.4842,-0.4827,-0.482,-0.4804,-0.4809,-0.479,-0.479,-0.4786,-0.4784,-0.4784,-0.478,-0.4789,-0.4789,-0.4789,-0.4888,-0.4879,-0.4867,-0.4855,-0.4844,-0.4828,-0.4818,-0.4807,-0.48,-0.4796,-0.479,-0.4785,-0.4783,-0.4783,-0.4779,-0.4788,-0.4788,-0.4788,-0.4788,-0.4877,-0.4868,-0.486,-0.4846,-0.4836,-0.4823,-0.4807,-0.4803,-0.4789,-0.4789,-0.4785,-0.4785,-0.4782,-0.4779,-0.4788,-0.4788,-0.4788,-0.4788,-0.4788,-0.4875,-0.4869,-0.4862,-0.4845,-0.4833,-0.482,-0.4808,-0.4799,-0.4791,-0.4787,-0.478,-0.478,-0.4779,-0.4785,-0.4785,-0.4785,-0.4785,-0.4785,-0.4785,-0.4876,-0.4868,-0.4858,-0.4843,-0.4835,-0.4823,-0.4807,-0.4799,-0.4787,-0.4781,-0.4781,-0.4775,-0.4784,-0.4786,-0.4784,-0.4784,-0.4784,-0.4784,-0.4784,-0.4867,-0.4868,-0.4853,-0.4845,-0.4827,-0.4815,-0.4805,-0.4788,-0.4779,-0.4773,-0.4768,-0.4776,-0.4773,-0.4773,-0.4775,-0.477,-0.477,-0.477,-0.477,-0.4865,-0.4863,-0.4846,-0.4834,-0.482,-0.481,-0.4792,-0.478,-0.4766,-0.476,-0.476,-0.4762,-0.4762,-0.4759,-0.4759,-0.4761,-0.4753,-0.4752,-0.4752,-0.4859,-0.4855,-0.4843,-0.4831,-0.4816,-0.4803,-0.4786,-0.4771,-0.4757,-0.4752,-0.4755,-0.4756,-0.4759,-0.476,-0.4755,-0.4756,-0.4759,0,0]}]]